#timestamp,LO_Frequency,Hit,StdDev 
1653242415.7,286047002.7,Y
1653242435.5,286047000.6,P
1653242455.4,286046998.1,P
1653242475.2,286047001.2,N
1653242495.0,286047001.0,N
1653242495.9,286047001.0,N
1653242515.8,286047000.7,N
1653242535.6,286047001.0,N
1653242555.5,286046998.1,N
1653242575.3,286046998.6,N
1653242595.1,286046998.5,N
1653242615.9,286046998.5,N
1653242635.7,286046998.3,N
1653242655.5,286046998.2,N
1653242675.4,286046998.4,N
1653242695.2,286046998.6,N
1653242715.1,286046999.1,N
1653242716.0,286046999.1,N
1653242735.8,286046999.4,N
1653242755.6,286046998.9,N
1653242775.5,286046998.6,N
1653242795.3,286046998.5,N
1653242815.1,286047001.2,N
1653242835.9,286046999.9,N
1653242855.7,286046998.8,N
1653242875.6,286047001.2,N
1653242895.4,286046998.5,N
1653242915.2,286047000.4,N
1653242935.1,286047001.1,N
1653242936.0,286047001.1,N
1653242955.8,286047000.4,N
1653242975.6,286047000.6,N
1653242995.5,286046998.5,N
1653243015.3,286047000.5,N
1653243035.2,286047002.3,N
1653243055.9,286047000.1,N
1653243075.7,286047000.1,N
1653243095.6,286047000.1,N
1653243115.4,286047000.3,N
1653243135.2,286047000.0,N
1653243155.1,286047000.0,N
1653243156.0,286047000.0,N
1653243175.8,286047000.4,N
1653243195.7,286047001.0,N
1653243215.5,286047001.1,N
1653243235.3,286046998.4,N
1653243255.2,286047000.0,N
1653243275.0,286047000.5,N
1653243275.9,286047000.5,N
1653243295.8,286046999.8,N
1653243315.6,286047000.7,N
1653243335.4,286046998.2,N
1653243355.3,286046998.4,N
1653243375.1,286047001.1,N
1653243395.8,286046998.5,N
1653243415.7,286046999.5,N
1653243435.5,286046998.7,N
1653243455.4,286046998.4,N
1653243475.2,286046998.2,N
1653243495.0,286046998.4,N
1653243495.9,286046998.4,N
1653243515.8,286046998.2,N
1653243535.6,286047000.8,N
1653243555.5,286046998.5,N
1653243575.3,286046998.2,N
1653243595.1,286046998.3,N
1653243615.9,286046998.5,N
1653243635.7,286047001.1,N
1653243655.6,286046998.2,N
1653243675.4,286047000.8,N
1653243695.3,286047001.0,N
1653243715.1,286047000.8,N
1653243716.0,286047000.8,N
1653243735.8,286047000.8,N
1653243755.7,286046998.1,N
1653243775.5,286047000.3,N
1653243795.3,286047001.2,N
1653243815.2,286047000.8,N
1653243835.0,286047000.2,N
1653243835.9,286047000.2,N
1653243855.8,286046999.9,N
1653243875.6,286047000.4,N
1653243895.4,286047000.5,N
1653243915.3,286047000.7,N
1653243935.1,286046998.3,N
1653243955.8,286046998.9,N
1653243975.7,286046998.1,N
1653243995.5,286046998.2,N
1653244015.4,286047001.2,N
1653244035.2,286047000.8,N
1653244055.0,286047000.9,N
1653244055.9,286047000.9,N
1653244075.8,286047001.0,N
1653244095.6,286046998.2,N
1653244115.4,286046998.1,N
1653244135.3,286046998.2,N
1653244155.1,286046998.2,N
1653244175.9,286047000.7,N
1653244195.7,286047001.1,N
1653244215.5,286047000.4,N
1653244235.4,286047002.7,N
1653244255.2,286047002.6,N
1653244275.1,286047002.7,N
1653244276.0,286047002.7,N
1653244295.8,286047002.5,N
1653244315.6,286047001.9,N
1653244335.5,286047002.7,N
1653244355.3,286047002.3,N
1653244375.2,286047002.5,N
1653244395.9,286046999.7,N
1653244415.7,286047001.1,N
1653244435.6,286047001.2,N
1653244455.4,286046999.0,N
1653244475.2,286046999.2,N
1653244495.1,286046997.9,N
1653244496.0,286046997.9,N
1653244515.8,286046994.9,N
1653244535.7,286046995.7,N
1653244555.5,286046997.1,N
1653244575.3,286046997.7,N
1653244595.2,286046996.6,N
1653244615.0,286046997.8,N
1653244615.9,286046997.8,N
1653244635.7,286046996.8,N
1653244655.6,286046997.1,N
1653244675.4,286046999.6,N
1653244695.3,286047013.9,Y
1653244715.1,286047013.2,P
1653244716.0,286047013.2,N
1653244735.8,286047009.6,N
1653244755.7,286047009.0,N
1653244775.5,286047007.0,N
1653244795.3,286047005.0,N
1653244815.2,286047004.7,N
1653244835.0,286047005.1,N
1653244835.9,286047005.1,N
1653244855.8,286047003.1,N
1653244875.6,286047003.7,N
1653244895.4,286047003.2,N
1653244915.3,286047003.4,N
1653244935.1,286047001.5,N
1653244955.9,286047002.6,N
1653244975.7,286047003.9,N
1653244995.5,286047002.5,N
1653245015.4,286047000.1,N
1653245035.2,286047001.2,N
1653245055.0,286047000.3,N
1653245055.9,286047000.3,N
1653245075.8,286047000.4,N
1653245095.6,286046998.2,N
1653245115.5,286046998.5,N
1653245135.3,286047001.1,N
1653245155.1,286046998.4,N
1653245175.9,286046999.9,N
1653245195.7,286047000.6,N
1653245215.5,286047000.6,N
1653245235.4,286046998.8,N
1653245255.2,286046998.7,N
1653245275.1,286046999.2,N
1653245276.0,286046999.2,N
1653245295.8,286046999.5,N
1653245315.6,286046996.7,N
1653245335.5,286046999.1,N
1653245355.3,286046997.7,N
1653245375.2,286046995.3,N
1653245395.9,286046995.5,N
1653245415.7,286046995.8,N
1653245435.6,286046996.2,N
1653245455.4,286046995.4,N
1653245475.3,286046997.5,N
1653245495.1,286046995.2,N
1653245496.0,286046995.2,N
1653245515.8,286046995.0,N
1653245535.7,286046997.8,N
1653245555.5,286046995.2,N
1653245575.3,286046996.2,N
1653245595.2,286046997.6,N
1653245615.0,286046995.5,N
1653245615.9,286046995.5,N
1653245635.8,286046995.3,N
1653245655.6,286046995.3,N
1653245675.4,286046995.4,N
1653245695.3,286046995.7,N
1653245715.1,286046997.4,N
1653245735.9,286046996.8,N
1653245755.7,286046995.0,Y
1653245775.5,286046999.1,P
1653245795.4,286046998.7,N
1653245815.2,286046998.2,N
1653245835.0,286046998.4,N
1653245836.0,286046998.4,N
1653245855.8,286046996.6,Y
1653245875.6,286047000.8,P
1653245895.5,286047000.4,N
1653245915.3,286047001.2,N
1653245935.1,286046999.5,N
1653245955.9,286047001.2,N
1653245975.7,286047000.9,N
1653245995.6,286047001.2,N
